Location: Bílinka
(49.3579°N, 14.3767°E)
Time: 02:18:33
(UTC+00:00)

Cosmos 407 Rocket - Pass Details

Date: 28 January 2023
Orbit: 742 x 786 km, 74.0° (Epoch: 30 March)

Event Time Altitude Azimuth Distance (km) Brightness Sun altitude
Rises 17:39:27 0° 193° (SSW) 3,199 7.0 -17.5°
Reaches altitude 10° 17:41:50 10° 191° (S) 2,272 6.2 -17.9°
Maximum altitude 17:46:56 68° 109° (ESE) 808 3.4 -18.7°
Enters shadow 17:50:20 21° 31° (NNE) 1,636 4.9 -19.3°
